"Platform","Spectacle Reef Light Station"
"NDBC ID","SRLM4"
"Latitude (deg)",45.77320
"Longitude (deg)",-84.13670
"Water Depth (m)",1.2
"Sensor Device","Campbell Scientific CR23X Logger"
"Sensor Type","Internal battery voltage measurement"
"Sensor Units","volts"
"Measurement","30 minute average of data samples taken at 2 second interval"
"Time means","Time at end of 30 minute averaging period (UTC time zone)"

"Note:","This data was collected for research purposes."
"Note:","Minimal quality checking has been performed so data may contain known or unknown errors."
"Note:","Data provided by NOAA. Please credit NOAA."
"Note:","For more info see www.glerl.noaa.gov/res/recon"

"Time (UTC)","Battery"
"YYYY/MM/DD HH:MM","volts"
2015/12/28 06:30, 12.51
2015/12/28 07:00, 12.51
2015/12/28 07:30, 12.50
2015/12/28 08:00, 12.49
2015/12/28 08:30, 12.48
2015/12/28 09:00, 12.47
2015/12/28 09:30, 12.47
2015/12/28 10:00, 12.46
2015/12/28 10:30, 12.45
2015/12/28 11:00, 12.45
2015/12/28 11:30, 12.44
2015/12/28 12:00, 12.43
2015/12/28 12:30, 12.43
2015/12/28 13:00, 12.42
2015/12/28 13:30, 12.41
2015/12/28 14:00, 12.42
2015/12/28 14:30, 12.46
2015/12/28 15:00, 12.52
2015/12/28 15:30, 12.57
2015/12/28 16:00, 12.63
2015/12/28 16:30, 12.76
2015/12/28 17:00, 12.93
2015/12/28 17:30, 12.99
2015/12/28 18:00, 13.08
2015/12/28 18:30, 13.07
2015/12/28 19:00, 12.99
2015/12/28 19:30, 12.93
2015/12/28 20:00, 12.86
2015/12/28 20:30, 12.79
2015/12/28 21:00, 12.73
2015/12/28 21:30, 12.68
2015/12/28 22:00, 12.62
2015/12/28 22:30, 12.57
2015/12/28 23:00, 12.54
2015/12/28 23:30, 12.51
2015/12/29 00:00, 12.49
2015/12/29 00:30, 12.46
2015/12/29 01:00, 12.45
2015/12/29 01:30, 12.43
2015/12/29 02:00, 12.41
2015/12/29 02:30, 12.40
2015/12/29 03:00, 12.38
2015/12/29 03:30, 12.37
2015/12/29 04:00, 12.36
2015/12/29 04:30, 12.35
2015/12/29 05:00, 12.34
2015/12/29 05:30, 12.29
2015/12/29 06:00, 12.34
2015/12/29 06:30, 12.34
2015/12/29 07:00, 12.33
2015/12/29 07:30, 12.33
2015/12/29 08:00, 12.33
2015/12/29 08:30, 12.33
2015/12/29 09:00, 12.32
2015/12/29 09:30, 12.32
2015/12/29 10:00, 12.32
2015/12/29 10:30, 12.31
2015/12/29 11:00, 12.31
2015/12/29 11:30, 12.31
2015/12/29 12:00, 12.30
2015/12/29 12:30, 12.30
2015/12/29 13:00, 12.30
2015/12/29 13:30, 12.30
2015/12/29 14:00, 12.30
2015/12/29 14:30, 12.32
2015/12/29 15:00, 12.34
2015/12/29 15:30, 12.38
2015/12/29 16:00, 12.45
2015/12/29 16:30, 12.49
2015/12/29 17:00, 12.56
2015/12/29 17:30, 12.64
2015/12/29 18:00, 12.71
2015/12/29 18:30, 12.76
2015/12/29 19:00, 12.75
2015/12/29 19:30, 12.73
2015/12/29 20:00, 12.69
2015/12/29 20:30, 12.64
2015/12/29 21:00, 12.61
2015/12/29 21:30, 12.56
2015/12/29 22:00, 12.51
2015/12/29 22:30, 12.45
2015/12/29 23:00, 12.41
2015/12/29 23:30, 12.37
2015/12/30 00:00, 12.35
2015/12/30 00:30, 12.32
2015/12/30 01:00, 12.31
2015/12/30 01:30, 12.30
2015/12/30 02:00, 12.29
2015/12/30 02:30, 12.29
2015/12/30 03:00, 12.28
2015/12/30 03:30, 12.28
2015/12/30 04:00, 12.28
2015/12/30 04:30, 12.28
2015/12/30 05:00, 12.28
2015/12/30 05:30, 12.27
2015/12/30 06:00, 12.27
2015/12/30 06:30, 12.27
2015/12/30 07:00, 12.27
2015/12/30 07:30, 12.27
2015/12/30 08:00, 12.27
2015/12/30 08:30, 12.27
2015/12/30 09:00, 12.27
2015/12/30 09:30, 12.26
2015/12/30 10:00, 12.26
2015/12/30 10:30, 12.26
2015/12/30 11:00, 12.26
2015/12/30 11:30, 12.26
2015/12/30 12:00, 12.26
2015/12/30 12:30, 12.26
2015/12/30 13:00, 12.26
2015/12/30 13:30, 12.25
2015/12/30 14:00, 12.26
2015/12/30 14:30, 12.30
2015/12/30 15:00, 12.32
2015/12/30 15:30, 12.35
2015/12/30 16:00, 12.46
2015/12/30 16:30, 12.61
2015/12/30 17:00, 12.60
2015/12/30 17:30, 12.60
2015/12/30 18:00, 12.62
2015/12/30 18:30, 12.64
2015/12/30 19:00, 12.65
2015/12/30 19:30, 12.70
2015/12/30 20:00, 12.72
2015/12/30 20:30, 12.69
2015/12/30 21:00, 12.62
2015/12/30 21:30, 12.59
2015/12/30 22:00, 12.53
2015/12/30 22:30, 12.46
2015/12/30 23:00, 12.42
2015/12/30 23:30, 12.38
2015/12/31 00:00, 12.35
2015/12/31 00:30, 12.32
2015/12/31 01:00, 12.30
2015/12/31 01:30, 12.29
2015/12/31 02:00, 12.28
2015/12/31 02:30, 12.27
2015/12/31 03:00, 12.26
2015/12/31 03:30, 12.26
2015/12/31 04:00, 12.25
2015/12/31 04:30, 12.25
2015/12/31 05:00, 12.25
2015/12/31 05:30, 12.24
2015/12/31 06:00, 12.24
2015/12/31 06:30, 12.24
2015/12/31 07:00, 12.24
2015/12/31 07:30, 12.24
2015/12/31 08:00, 12.23
2015/12/31 08:30, 12.23
2015/12/31 09:00, 12.23
2015/12/31 09:30, 12.23
2015/12/31 10:00, 12.23
2015/12/31 10:30, 12.23
2015/12/31 11:00, 12.22
2015/12/31 11:30, 12.22
2015/12/31 12:00, 12.22
2015/12/31 12:30, 12.22
2015/12/31 13:00, 12.22
2015/12/31 13:30, 12.22
2015/12/31 14:00, 12.24
2015/12/31 14:30, 12.28
2015/12/31 15:00, 12.31
2015/12/31 15:30, 12.37
2015/12/31 16:00, 12.48
2015/12/31 16:30, 12.59
2015/12/31 17:00, 12.65
2015/12/31 17:30, 12.67
2015/12/31 18:00, 12.68
2015/12/31 18:30, 12.71
2015/12/31 19:00, 12.74
2015/12/31 19:30, 12.76
2015/12/31 20:00, 12.70
2015/12/31 20:30, 12.65
2015/12/31 21:00, 12.63
2015/12/31 21:30, 12.58
2015/12/31 22:00, 12.52
2015/12/31 22:30, 12.46
2015/12/31 23:00, 12.42
2015/12/31 23:30, 12.38
2016/01/01 00:00, 12.35
2016/01/01 00:30, 12.33
2016/01/01 01:00, 12.30
2016/01/01 01:30, 12.29
2016/01/01 02:00, 12.27
2016/01/01 02:30, 12.26
2016/01/01 03:00, 12.24
2016/01/01 03:30, 12.23
2016/01/01 04:00, 12.23
2016/01/01 04:30, 12.22
2016/01/01 05:00, 12.22
2016/01/01 05:30, 12.21
2016/01/01 06:00, 12.21
2016/01/01 06:30, 12.21
2016/01/01 07:00, 12.21
2016/01/01 07:30, 12.20
2016/01/01 08:00, 12.20
2016/01/01 08:30, 12.20
2016/01/01 09:00, 12.20
2016/01/01 09:30, 12.20
2016/01/01 10:00, 12.19
2016/01/01 10:30, 12.19
2016/01/01 11:00, 12.19
2016/01/01 11:30, 12.19
2016/01/01 12:00, 12.19
2016/01/01 12:30, 12.19
2016/01/01 13:00, 12.19
2016/01/01 13:30, 12.18
2016/01/01 14:00, 12.19
2016/01/01 14:30, 12.20
2016/01/01 15:00, 12.21
2016/01/01 15:30, 12.29
2016/01/01 16:00, 12.39
2016/01/01 16:30, 12.53
2016/01/01 17:00, 12.86
2016/01/01 17:30, 13.81
2016/01/01 18:00, 15.08
2016/01/01 18:30, 13.47
2016/01/01 19:00, 13.29
2016/01/01 19:30, 13.18
2016/01/01 20:00, 13.10
2016/01/01 20:30, 14.08
2016/01/01 21:00, 14.60
2016/01/01 21:30, 13.60
2016/01/01 22:00, 13.13
2016/01/01 22:30, 12.89
2016/01/01 23:00, 12.79
2016/01/01 23:30, 12.73
2016/01/02 00:00, 12.70
2016/01/02 00:30, 12.68
2016/01/02 01:00, 12.66
2016/01/02 01:30, 12.64
2016/01/02 02:00, 12.63
2016/01/02 02:30, 12.62
2016/01/02 03:00, 12.60
2016/01/02 03:30, 12.59
2016/01/02 04:00, 12.58
2016/01/02 04:30, 12.57
2016/01/02 05:00, 12.56
2016/01/02 05:30, 12.55
2016/01/02 06:00, 12.55
2016/01/02 06:30, 12.54
2016/01/02 07:00, 12.53
2016/01/02 07:30, 12.52
2016/01/02 08:00, 12.52
2016/01/02 08:30, 12.51
2016/01/02 09:00, 12.50
2016/01/02 09:30, 12.50
2016/01/02 10:00, 12.49
2016/01/02 10:30, 12.48
2016/01/02 11:00, 12.48
2016/01/02 11:30, 12.47
2016/01/02 12:00, 12.47
2016/01/02 12:30, 12.46
2016/01/02 13:00, 12.46
2016/01/02 13:30, 12.45
2016/01/02 14:00, 12.44
2016/01/02 14:30, 12.45
2016/01/02 15:00, 12.46
2016/01/02 15:30, 12.48
2016/01/02 16:00, 12.53
2016/01/02 16:30, 12.60
2016/01/02 17:00, 12.65
2016/01/02 17:30, 12.72
2016/01/02 18:00, 12.78
2016/01/02 18:30, 12.88
2016/01/02 19:00, 12.90
2016/01/02 19:30, 12.92
2016/01/02 20:30, 12.86
2016/01/02 21:00, 12.80
2016/01/02 21:30, 12.77
2016/01/02 22:00, 12.74
2016/01/02 22:30, 12.67
2016/01/02 23:00, 12.61
2016/01/02 23:30, 12.56
2016/01/03 00:00, 12.53
2016/01/03 00:30, 12.50
2016/01/03 01:00, 12.48
2016/01/03 01:30, 12.47
2016/01/03 02:00, 12.45
2016/01/03 02:30, 12.44
2016/01/03 03:00, 12.43
2016/01/03 03:30, 12.43
2016/01/03 04:00, 12.42
2016/01/03 04:30, 12.41
2016/01/03 05:00, 12.41
2016/01/03 05:30, 12.40
2016/01/03 06:00, 12.40
2016/01/03 06:30, 12.39
2016/01/03 07:00, 12.39
2016/01/03 07:30, 12.38
2016/01/03 08:00, 12.38
2016/01/03 08:30, 12.38
2016/01/03 09:00, 12.37
2016/01/03 09:30, 12.37
2016/01/03 10:00, 12.37
2016/01/03 10:30, 12.36
2016/01/03 11:00, 12.36
2016/01/03 11:30, 12.36
2016/01/03 12:00, 12.35
2016/01/03 12:30, 12.35
2016/01/03 13:00, 12.34
2016/01/03 13:30, 12.35
2016/01/03 14:00, 12.41
2016/01/03 14:30, 13.94
2016/01/03 15:00, 14.64
2016/01/03 15:30, 14.77
2016/01/03 16:00, 14.20
2016/01/03 16:30, 14.44
2016/01/03 17:00, 14.68
2016/01/03 17:30, 14.78
2016/01/03 18:00, 14.78
2016/01/03 18:30, 14.79
2016/01/03 19:00, 13.98
2016/01/03 19:30, 14.67
2016/01/03 20:00, 14.55
2016/01/03 20:30, 14.46
2016/01/03 21:00, 14.20
2016/01/03 21:30, 13.33
2016/01/03 22:00, 13.08
2016/01/03 22:30, 12.92
2016/01/03 23:00, 12.83
2016/01/03 23:30, 12.79
2016/01/04 00:00, 12.75
2016/01/04 00:30, 12.73
2016/01/04 01:00, 12.71
2016/01/04 01:30, 12.70
2016/01/04 02:00, 12.68
2016/01/04 02:30, 12.67
2016/01/04 03:00, 12.65
2016/01/04 03:30, 12.64
2016/01/04 04:00, 12.63
2016/01/04 04:30, 12.63
2016/01/04 05:00, 12.62
2016/01/04 05:30, 12.61
2016/01/04 06:00, 12.60
2016/01/04 06:30, 12.59
2016/01/04 07:00, 12.58
2016/01/04 07:30, 12.57
2016/01/04 08:00, 12.57
2016/01/04 08:30, 12.56
2016/01/04 09:00, 12.55
2016/01/04 09:30, 12.54
2016/01/04 10:00, 12.54
2016/01/04 10:30, 12.53
2016/01/04 11:00, 12.52
2016/01/04 11:30, 12.52
2016/01/04 12:00, 12.51
2016/01/04 12:30, 12.50
2016/01/04 13:00, 12.49
2016/01/04 13:30, 12.49
2016/01/04 14:00, 12.50
2016/01/04 14:30, 12.57
2016/01/04 15:00, 12.71
2016/01/04 15:30, 13.27
2016/01/04 16:00, 14.56
2016/01/04 16:30, 13.97
2016/01/04 17:00, 13.75
2016/01/04 17:30, 13.57
2016/01/04 18:00, 13.87
2016/01/04 18:30, 14.56
2016/01/04 19:00, 14.40
2016/01/04 19:30, 13.98
2016/01/04 20:00, 13.60
2016/01/04 20:30, 13.43
2016/01/04 21:00, 13.29
2016/01/04 21:30, 13.17
2016/01/04 22:00, 13.03
2016/01/04 22:30, 12.91
2016/01/04 23:00, 12.83
2016/01/04 23:30, 12.77
2016/01/05 00:00, 12.73
2016/01/05 00:30, 12.69
2016/01/05 01:00, 12.67
2016/01/05 01:30, 12.64
2016/01/05 02:00, 12.62
2016/01/05 02:30, 12.61
2016/01/05 03:00, 12.59
2016/01/05 03:30, 12.58
2016/01/05 04:00, 12.56
2016/01/05 04:30, 12.55
2016/01/05 05:00, 12.54
2016/01/05 05:30, 12.53
2016/01/05 06:00, 12.51
2016/01/05 06:30, 12.50
2016/01/05 07:00, 12.49
2016/01/05 07:30, 12.48
2016/01/05 08:00, 12.47
2016/01/05 08:30, 12.46
2016/01/05 09:00, 12.46
2016/01/05 09:30, 12.45
2016/01/05 10:00, 12.44
2016/01/05 10:30, 12.44
2016/01/05 11:00, 12.43
2016/01/05 11:30, 12.43
2016/01/05 12:00, 12.42
2016/01/05 12:30, 12.42
2016/01/05 13:00, 12.41
2016/01/05 13:30, 12.42
2016/01/05 14:00, 12.44
2016/01/05 14:30, 12.47
2016/01/05 15:00, 12.56
2016/01/05 15:30, 12.65
2016/01/05 16:00, 12.77
2016/01/05 16:30, 13.42
2016/01/05 17:00, 14.69
2016/01/05 17:30, 14.93
2016/01/05 18:00, 14.93
2016/01/05 18:30, 14.22
2016/01/05 19:00, 13.75
2016/01/05 19:30, 13.51
2016/01/05 20:00, 13.36
2016/01/05 20:30, 13.30
2016/01/05 21:00, 13.26
2016/01/05 21:30, 13.18
2016/01/05 22:00, 13.10
2016/01/05 22:30, 12.97
2016/01/05 23:00, 12.87
2016/01/05 23:30, 12.79
2016/01/06 00:00, 12.74
2016/01/06 00:30, 12.70
2016/01/06 01:00, 12.67
2016/01/06 01:30, 12.65
2016/01/06 02:00, 12.63
2016/01/06 02:30, 12.61
2016/01/06 03:00, 12.59
2016/01/06 03:30, 12.58
2016/01/06 04:00, 12.56
2016/01/06 04:30, 12.55
2016/01/06 05:00, 12.53
2016/01/06 05:30, 12.52
2016/01/06 06:00, 12.51
2016/01/06 06:30, 12.49
2016/01/06 07:00, 12.48
2016/01/06 07:30, 12.47
2016/01/06 08:00, 12.46
2016/01/06 08:30, 12.45
2016/01/06 09:00, 12.44
2016/01/06 09:30, 12.44
2016/01/06 10:00, 12.43
2016/01/06 10:30, 12.43
2016/01/06 11:00, 12.43
2016/01/06 11:30, 12.42
2016/01/06 12:00, 12.42
2016/01/06 12:30, 12.42
2016/01/06 13:00, 12.41
2016/01/06 13:30, 12.41
2016/01/06 14:00, 12.43
2016/01/06 14:30, 12.48
2016/01/06 15:00, 12.53
2016/01/06 15:30, 12.60
2016/01/06 16:00, 12.73
2016/01/06 16:30, 12.81
2016/01/06 17:00, 12.90
2016/01/06 17:30, 12.97
2016/01/06 18:00, 13.04
2016/01/06 18:30, 13.29
2016/01/06 19:00, 13.23
2016/01/06 19:30, 13.21
2016/01/06 20:00, 13.20
2016/01/06 20:30, 13.20
2016/01/06 21:00, 13.10
2016/01/06 21:30, 13.02
2016/01/06 22:00, 12.91
2016/01/06 22:30, 12.81
2016/01/06 23:00, 12.74
2016/01/06 23:30, 12.69
2016/01/07 00:00, 12.65
2016/01/07 00:30, 12.62
2016/01/07 01:00, 12.60
2016/01/07 01:30, 12.57
2016/01/07 02:00, 12.55
2016/01/07 02:30, 12.53
2016/01/07 03:00, 12.51
2016/01/07 03:30, 12.49
2016/01/07 04:00, 12.48
2016/01/07 04:30, 12.46
2016/01/07 05:00, 12.45
2016/01/07 05:30, 12.44
2016/01/07 06:00, 12.44
2016/01/07 06:30, 12.43
2016/01/07 07:00, 12.42
2016/01/07 07:30, 12.42
2016/01/07 08:00, 12.41
2016/01/07 08:30, 12.41
2016/01/07 09:00, 12.41
2016/01/07 09:30, 12.40
2016/01/07 10:00, 12.40
2016/01/07 10:30, 12.40
2016/01/07 11:00, 12.40
2016/01/07 11:30, 12.39
2016/01/07 12:00, 12.39
2016/01/07 12:30, 12.39
2016/01/07 13:00, 12.39
2016/01/07 13:30, 12.39
2016/01/07 14:00, 12.40
2016/01/07 14:30, 12.53
2016/01/07 15:00, 12.64
2016/01/07 15:30, 12.75
2016/01/07 16:00, 12.82
2016/01/07 16:30, 12.88
2016/01/07 17:00, 12.93
2016/01/07 17:30, 13.08
2016/01/07 18:00, 13.13
2016/01/07 18:30, 13.11
2016/01/07 19:00, 13.06
2016/01/07 19:30, 13.14
2016/01/07 20:00, 13.12
2016/01/07 20:30, 13.08
2016/01/07 21:00, 13.08
2016/01/07 21:30, 13.04
2016/01/07 22:00, 12.90
2016/01/07 22:30, 12.79
2016/01/07 23:00, 12.72
2016/01/07 23:30, 12.68
2016/01/08 00:00, 12.64
2016/01/08 00:30, 12.61
2016/01/08 01:00, 12.59
2016/01/08 01:30, 12.56
2016/01/08 02:00, 12.54
2016/01/08 02:30, 12.52
2016/01/08 03:00, 12.51
2016/01/08 03:30, 12.49
2016/01/08 04:00, 12.47
2016/01/08 04:30, 12.46
2016/01/08 05:00, 12.45
2016/01/08 05:30, 12.44
2016/01/08 06:00, 12.43
2016/01/08 06:30, 12.42
2016/01/08 07:00, 12.41
2016/01/08 07:30, 12.41
2016/01/08 08:00, 12.40
2016/01/08 08:30, 12.39
2016/01/08 09:00, 12.39
2016/01/08 09:30, 12.39
2016/01/08 10:00, 12.38
2016/01/08 10:30, 12.38
2016/01/08 11:00, 12.38
2016/01/08 11:30, 12.38
2016/01/08 12:00, 12.38
2016/01/08 12:30, 12.37
2016/01/08 13:00, 12.37
2016/01/08 13:30, 12.37
2016/01/08 14:00, 12.38
2016/01/08 14:30, 12.41
2016/01/08 15:00, 12.46
2016/01/08 15:30, 12.53
2016/01/08 16:00, 12.63
2016/01/08 16:30, 12.71
2016/01/08 17:00, 12.91
2016/01/08 17:30, 13.25
2016/01/08 18:00, 13.24
2016/01/08 18:30, 13.46
2016/01/08 19:00, 14.73
2016/01/08 19:30, 14.47
2016/01/08 20:00, 13.49
2016/01/08 20:30, 13.28
2016/01/08 21:00, 13.17
2016/01/08 21:30, 13.12
2016/01/08 22:00, 12.98
2016/01/08 22:30, 12.86
2016/01/08 23:00, 12.78
2016/01/08 23:30, 12.73
2016/01/09 00:00, 12.70
2016/01/09 00:30, 12.67
2016/01/09 01:00, 12.65
2016/01/09 01:30, 12.64
2016/01/09 02:00, 12.62
2016/01/09 02:30, 12.61
2016/01/09 03:00, 12.59
2016/01/09 03:30, 12.58
2016/01/09 04:00, 12.57
2016/01/09 04:30, 12.54
2016/01/09 05:00, 12.48
2016/01/09 05:30, 12.46
2016/01/09 06:00, 12.44
2016/01/09 06:30, 12.43
2016/01/09 07:00, 12.40
2016/01/09 07:30, 12.38
2016/01/09 08:00, 12.36
2016/01/09 08:30, 12.36
2016/01/09 09:00, 12.35
2016/01/09 09:30, 12.34
2016/01/09 10:00, 12.33
2016/01/09 10:30, 12.33
2016/01/09 11:00, 12.33
2016/01/09 11:30, 12.32
2016/01/09 12:00, 12.31
2016/01/09 12:30, 12.31
2016/01/09 13:00, 12.31
2016/01/09 13:30, 12.31
2016/01/09 14:00, 12.30
2016/01/09 14:30, 12.32
2016/01/09 15:00, 12.39
2016/01/09 15:30, 12.58
2016/01/09 16:00, 12.59
2016/01/09 16:30, 12.64
2016/01/09 17:00, 12.71
2016/01/09 17:30, 12.79
2016/01/09 18:00, 12.84
2016/01/09 18:30, 12.80
2016/01/09 19:00, 12.77
2016/01/09 19:30, 12.75
2016/01/09 20:00, 12.70
2016/01/09 20:30, 12.67
2016/01/09 21:00, 12.62
2016/01/09 21:30, 12.58
2016/01/09 22:00, 12.53
2016/01/09 22:30, 12.48
2016/01/09 23:00, 12.45
2016/01/09 23:30, 12.43
2016/01/10 00:00, 12.40
2016/01/10 00:30, 12.38
2016/01/10 01:00, 12.37
2016/01/10 01:30, 12.36
2016/01/10 02:00, 12.35
2016/01/10 02:30, 12.35
2016/01/10 03:00, 12.34
2016/01/10 03:30, 12.34
2016/01/10 04:00, 12.33
2016/01/10 04:30, 12.33
2016/01/10 05:00, 12.33
2016/01/10 05:30, 12.33
2016/01/10 06:00, 12.33
2016/01/10 06:30, 12.32
2016/01/10 07:00, 12.32
2016/01/10 07:30, 12.32
2016/01/10 08:00, 12.32
2016/01/10 08:30, 12.32
2016/01/10 09:00, 12.32
2016/01/10 09:30, 12.32
2016/01/10 10:00, 12.32
2016/01/10 10:30, 12.31
2016/01/10 11:00, 12.31
2016/01/10 11:30, 12.31
2016/01/10 12:00, 12.31
2016/01/10 12:30, 12.31
2016/01/10 13:00, 12.31
2016/01/10 13:30, 12.31
2016/01/10 14:00, 12.32
2016/01/10 14:30, 12.36
2016/01/10 15:00, 12.44
2016/01/10 15:30, 12.63
2016/01/10 16:00, 12.74
2016/01/10 16:30, 13.22
2016/01/10 17:00, 13.62
2016/01/10 17:30, 13.16
2016/01/10 18:00, 13.25
2016/01/10 18:30, 13.25
2016/01/10 19:00, 13.21
2016/01/10 19:30, 13.82
2016/01/10 20:00, 13.22
2016/01/10 20:30, 13.79
2016/01/10 21:00, 13.22
2016/01/10 21:30, 13.01
2016/01/10 22:00, 12.89
2016/01/10 22:30, 12.79
2016/01/10 23:00, 12.73
2016/01/10 23:30, 12.68
2016/01/11 00:00, 12.65
2016/01/11 00:30, 12.62
2016/01/11 01:00, 12.60
2016/01/11 01:30, 12.58
2016/01/11 02:00, 12.56
2016/01/11 02:30, 12.55
2016/01/11 03:00, 12.53
2016/01/11 03:30, 12.52
2016/01/11 04:00, 12.50
2016/01/11 04:30, 12.49
2016/01/11 05:00, 12.48
2016/01/11 05:30, 12.46
2016/01/11 06:00, 12.45
2016/01/11 06:30, 12.44
2016/01/11 07:00, 12.43
2016/01/11 07:30, 12.41
2016/01/11 08:00, 12.40
2016/01/11 08:30, 12.39
2016/01/11 09:00, 12.38
2016/01/11 09:30, 12.36
2016/01/11 10:00, 12.35
2016/01/11 10:30, 12.34
2016/01/11 11:00, 12.33
2016/01/11 11:30, 12.32
2016/01/11 12:00, 12.31
2016/01/11 12:30, 12.30
2016/01/11 13:00, 12.29
2016/01/11 13:30, 12.29
2016/01/11 14:00, 12.33
2016/01/11 14:30, 12.48
2016/01/11 15:00, 12.86
2016/01/11 15:30, 13.19
2016/01/11 16:00, 13.43
2016/01/11 16:30, 15.54
2016/01/11 17:00, 15.38
2016/01/11 17:30, 15.60
2016/01/11 18:00, 15.11
2016/01/11 18:30, 13.74
2016/01/11 19:00, 14.99
2016/01/11 19:30, 14.80
2016/01/11 20:00, 13.89
2016/01/11 20:30, 13.39
2016/01/11 21:00, 13.19
2016/01/11 21:30, 13.05
2016/01/11 22:00, 12.94
2016/01/11 22:30, 12.84
2016/01/11 23:00, 12.77
2016/01/11 23:30, 12.72
2016/01/12 00:00, 12.69
2016/01/12 00:30, 12.66
2016/01/12 01:00, 12.64
2016/01/12 01:30, 12.62
2016/01/12 02:00, 12.60
2016/01/12 02:30, 12.59
2016/01/12 03:00, 12.57
2016/01/12 03:30, 12.56
2016/01/12 04:00, 12.55
2016/01/12 04:30, 12.53
2016/01/12 05:00, 12.52
2016/01/12 05:30, 12.51
2016/01/12 06:00, 12.50
2016/01/12 06:30, 12.49
2016/01/12 07:00, 12.47
2016/01/12 07:30, 12.46
2016/01/12 08:00, 12.45
2016/01/12 08:30, 12.44
2016/01/12 09:00, 12.43
2016/01/12 09:30, 12.42
2016/01/12 10:00, 12.41
2016/01/12 10:30, 12.40
2016/01/12 11:00, 12.39
2016/01/12 11:30, 12.38
2016/01/12 12:00, 12.37
2016/01/12 12:30, 12.36
2016/01/12 13:00, 12.35
2016/01/12 13:30, 12.34
2016/01/12 14:00, 12.36
2016/01/12 14:30, 12.39
2016/01/12 15:00, 12.49
2016/01/12 15:30, 12.64
2016/01/12 16:00, 13.79
2016/01/12 16:30, 14.94
2016/01/12 17:00, 14.91
2016/01/12 17:30, 14.90
2016/01/12 18:00, 14.90
2016/01/12 18:30, 14.90
2016/01/12 19:00, 14.58
2016/01/12 19:30, 14.34
2016/01/12 20:00, 14.55
2016/01/12 20:30, 14.12
2016/01/12 21:00, 13.57
2016/01/12 21:30, 13.36
2016/01/12 22:00, 13.17
2016/01/12 22:30, 13.01
2016/01/12 23:00, 12.89
2016/01/12 23:30, 12.81
2016/01/13 00:00, 12.75
2016/01/13 00:30, 12.71
2016/01/13 01:00, 12.67
2016/01/13 01:30, 12.65
2016/01/13 02:00, 12.63
2016/01/13 02:30, 12.61
2016/01/13 03:00, 12.59
2016/01/13 03:30, 12.58
2016/01/13 04:00, 12.56
2016/01/13 04:30, 12.55
2016/01/13 05:00, 12.54
2016/01/13 05:30, 12.52
2016/01/13 06:00, 12.51
2016/01/13 06:30, 12.50
2016/01/13 07:00, 12.48
2016/01/13 07:30, 12.47
2016/01/13 08:00, 12.46
2016/01/13 08:30, 12.45
2016/01/13 09:00, 12.44
2016/01/13 09:30, 12.43
2016/01/13 10:00, 12.42
2016/01/13 10:30, 12.40
2016/01/13 11:00, 12.39
2016/01/13 11:30, 12.38
2016/01/13 12:00, 12.37
2016/01/13 12:30, 12.36
2016/01/13 13:00, 12.35
2016/01/13 13:30, 12.34
2016/01/13 14:00, 12.35
2016/01/13 14:30, 12.39
2016/01/13 15:00, 12.46
2016/01/13 15:30, 12.61
2016/01/13 16:00, 12.81
2016/01/13 16:30, 13.20
2016/01/13 17:00, 15.04
2016/01/13 17:30, 14.95
2016/01/13 18:00, 14.18
2016/01/13 18:30, 15.12
2016/01/13 19:00, 15.45
2016/01/13 19:30, 14.29
2016/01/13 20:00, 13.97
2016/01/13 20:30, 13.56
2016/01/13 21:00, 13.56
2016/01/13 21:30, 13.34
2016/01/13 22:00, 13.15
2016/01/13 22:30, 13.00
2016/01/13 23:00, 12.89
2016/01/13 23:30, 12.81
2016/01/14 00:00, 12.75
2016/01/14 00:30, 12.70
2016/01/14 01:00, 12.67
2016/01/14 01:30, 12.64
2016/01/14 02:00, 12.62
2016/01/14 02:30, 12.60
2016/01/14 03:00, 12.58
2016/01/14 03:30, 12.56
2016/01/14 04:00, 12.55
2016/01/14 04:30, 12.53
2016/01/14 05:00, 12.52
2016/01/14 05:30, 12.50
2016/01/14 06:00, 12.49
2016/01/14 06:30, 12.48
2016/01/14 07:00, 12.46
2016/01/14 07:30, 12.45
2016/01/14 08:00, 12.43
2016/01/14 08:30, 12.42
2016/01/14 09:00, 12.41
2016/01/14 09:30, 12.39
2016/01/14 10:00, 12.38
2016/01/14 10:30, 12.36
2016/01/14 11:00, 12.35
2016/01/14 11:30, 12.34
2016/01/14 12:00, 12.33
2016/01/14 12:30, 12.32
2016/01/14 13:00, 12.31
2016/01/14 13:30, 12.30
2016/01/14 14:00, 12.31
2016/01/14 14:30, 12.35
2016/01/14 15:00, 12.50
2016/01/14 15:30, 12.79
2016/01/14 16:00, 13.02
2016/01/14 16:30, 13.15
2016/01/14 17:00, 14.15
2016/01/14 17:30, 14.83
2016/01/14 18:00, 15.52
2016/01/14 18:30, 15.28
2016/01/14 19:00, 14.82
2016/01/14 19:30, 14.78
2016/01/14 20:00, 13.56
2016/01/14 20:30, 13.46
2016/01/14 21:00, 13.33
2016/01/14 21:30, 13.29
2016/01/14 22:00, 13.14
2016/01/14 22:30, 12.99
2016/01/14 23:00, 12.89
2016/01/14 23:30, 12.80
2016/01/15 00:00, 12.74
2016/01/15 00:30, 12.70
2016/01/15 01:00, 12.67
2016/01/15 01:30, 12.64
2016/01/15 02:00, 12.62
2016/01/15 02:30, 12.60
2016/01/15 03:00, 12.58
2016/01/15 03:30, 12.57
2016/01/15 04:00, 12.55
2016/01/15 04:30, 12.54
2016/01/15 05:00, 12.52
2016/01/15 05:30, 12.51
2016/01/15 06:00, 12.49
2016/01/15 06:30, 12.46
2016/01/15 07:00, 12.42
2016/01/15 07:30, 12.40
2016/01/15 08:00, 12.37
2016/01/15 08:30, 12.35
2016/01/15 09:00, 12.33
2016/01/15 09:30, 12.31
2016/01/15 10:00, 12.30
2016/01/15 10:30, 12.28
2016/01/15 11:00, 12.27
2016/01/15 11:30, 12.26
2016/01/15 12:00, 12.24
2016/01/15 12:30, 12.24
2016/01/15 13:00, 12.23
2016/01/15 13:30, 12.22
2016/01/15 14:00, 12.22
2016/01/15 14:30, 12.22
2016/01/15 15:00, 12.22
2016/01/15 15:30, 12.23
2016/01/15 16:00, 12.23
2016/01/15 16:30, 12.24
2016/01/15 17:00, 12.25
2016/01/15 17:30, 12.25
2016/01/15 18:00, 12.25
2016/01/15 18:30, 12.26
2016/01/15 19:00, 12.26
2016/01/15 19:30, 12.26
2016/01/15 20:00, 12.27
2016/01/15 20:30, 12.26
2016/01/15 21:00, 12.25
2016/01/15 21:30, 12.23
2016/01/15 22:00, 12.21
2016/01/15 22:30, 12.20
2016/01/15 23:00, 12.20
2016/01/15 23:30, 12.20
2016/01/16 00:00, 12.20
2016/01/16 00:30, 12.19
2016/01/16 01:00, 12.20
2016/01/16 01:30, 12.19
2016/01/16 02:00, 12.19
2016/01/16 02:30, 12.19
2016/01/16 03:00, 12.19
2016/01/16 03:30, 12.19
2016/01/16 04:00, 12.19
2016/01/16 04:30, 12.19
2016/01/16 05:00, 12.18
2016/01/16 05:30, 12.18
2016/01/16 06:00, 12.19
2016/01/16 06:30, 12.18
2016/01/16 07:00, 12.18
2016/01/16 07:30, 12.18
2016/01/16 08:00, 12.18
2016/01/16 08:30, 12.18
2016/01/16 09:00, 12.18
2016/01/16 09:30, 12.18
2016/01/16 10:00, 12.18
2016/01/16 10:30, 12.18
2016/01/16 11:00, 12.18
2016/01/16 11:30, 12.18
2016/01/16 12:00, 12.18
2016/01/16 12:30, 12.18
2016/01/16 13:00, 12.17
2016/01/16 13:30, 12.18
2016/01/16 14:00, 12.24
2016/01/16 14:30, 12.51
2016/01/16 15:00, 12.72
2016/01/16 15:30, 12.88